Year,Month,Day,Hour,Minute,Value (Times are PST for temperature in C)
2016,08,20,00,00,20.10
2016,08,20,00,01,20.10
2016,08,20,00,02,20.10
2016,08,20,00,03,20.10
2016,08,20,00,04,20.10
2016,08,20,00,05,20.10
2016,08,20,00,06,20.10
2016,08,20,00,07,20.10
2016,08,20,00,08,20.10
2016,08,20,00,09,20.00
2016,08,20,00,10,20.00
2016,08,20,00,11,20.00
2016,08,20,00,12,20.00
2016,08,20,00,13,19.90
2016,08,20,00,14,19.90
2016,08,20,00,15,19.90
2016,08,20,00,16,19.90
2016,08,20,00,17,19.90
2016,08,20,00,18,20.00
2016,08,20,00,19,20.00
2016,08,20,00,20,20.00
2016,08,20,00,21,20.00
2016,08,20,00,22,20.00
2016,08,20,00,23,20.00
2016,08,20,00,24,20.10
2016,08,20,00,25,20.10
2016,08,20,00,26,20.10
2016,08,20,00,27,20.10
2016,08,20,00,28,20.10
2016,08,20,00,29,20.10
2016,08,20,00,30,20.20
2016,08,20,00,31,20.20
2016,08,20,00,32,20.20
2016,08,20,00,33,20.20
2016,08,20,00,34,20.20
2016,08,20,00,35,20.20
2016,08,20,00,36,20.10
2016,08,20,00,37,20.10
2016,08,20,00,38,20.10
2016,08,20,00,39,20.10
2016,08,20,00,40,20.10
2016,08,20,00,41,20.10
2016,08,20,00,42,20.10
2016,08,20,00,43,20.10
2016,08,20,00,44,20.00
2016,08,20,00,45,20.00
2016,08,20,00,46,20.00
2016,08,20,00,47,20.00
2016,08,20,00,48,20.10
2016,08,20,00,49,20.10
2016,08,20,00,50,20.10
2016,08,20,00,51,20.10
2016,08,20,00,52,20.20
2016,08,20,00,53,20.20
2016,08,20,00,54,20.20
2016,08,20,00,55,20.20
2016,08,20,00,56,20.20
2016,08,20,00,57,20.20
2016,08,20,00,58,20.20
2016,08,20,00,59,20.20
2016,08,20,01,00,20.20
2016,08,20,01,01,20.20
2016,08,20,01,02,20.10
2016,08,20,01,03,20.10
2016,08,20,01,04,20.10
2016,08,20,01,05,20.10
2016,08,20,01,06,20.00
2016,08,20,01,07,20.00
2016,08,20,01,08,20.00
2016,08,20,01,09,19.90
2016,08,20,01,10,19.90
2016,08,20,01,11,19.90
2016,08,20,01,12,19.90
2016,08,20,01,13,19.90
2016,08,20,01,14,19.90
2016,08,20,01,15,19.90
2016,08,20,01,16,19.90
2016,08,20,01,17,19.90
2016,08,20,01,18,19.90
2016,08,20,01,19,19.90
2016,08,20,01,20,19.90
2016,08,20,01,21,20.00
2016,08,20,01,22,19.90
2016,08,20,01,23,19.90
2016,08,20,01,24,19.90
2016,08,20,01,25,19.90
2016,08,20,01,26,19.90
2016,08,20,01,27,19.90
2016,08,20,01,28,19.90
2016,08,20,01,29,19.80
2016,08,20,01,30,19.80
2016,08,20,01,31,19.80
2016,08,20,01,32,19.80
2016,08,20,01,33,19.80
2016,08,20,01,34,19.70
2016,08,20,01,35,19.70
2016,08,20,01,36,19.70
2016,08,20,01,37,19.60
2016,08,20,01,38,19.60
2016,08,20,01,39,19.60
2016,08,20,01,40,19.50
2016,08,20,01,41,19.50
2016,08,20,01,42,19.40
2016,08,20,01,43,19.30
2016,08,20,01,44,19.30
2016,08,20,01,45,19.20
2016,08,20,01,46,19.20
2016,08,20,01,47,19.20
2016,08,20,01,48,19.20
2016,08,20,01,49,19.10
2016,08,20,01,50,19.10
2016,08,20,01,51,19.10
2016,08,20,01,52,19.10
2016,08,20,01,53,19.00
2016,08,20,01,54,19.00
2016,08,20,01,55,19.00
2016,08,20,01,56,18.90
2016,08,20,01,57,18.90
2016,08,20,01,58,18.90
2016,08,20,01,59,19.00
2016,08,20,02,00,19.00
2016,08,20,02,01,19.10
2016,08,20,02,02,19.20
2016,08,20,02,03,19.30
2016,08,20,02,04,19.40
2016,08,20,02,05,19.50
2016,08,20,02,06,19.60
2016,08,20,02,07,19.70
2016,08,20,02,08,19.70
2016,08,20,02,09,19.80
2016,08,20,02,10,19.90
2016,08,20,02,11,20.00
2016,08,20,02,12,20.10
2016,08,20,02,13,20.20
2016,08,20,02,14,20.20
2016,08,20,02,15,20.30
2016,08,20,02,16,20.30
2016,08,20,02,17,20.40
2016,08,20,02,18,20.50
2016,08,20,02,19,20.50
2016,08,20,02,20,20.50
2016,08,20,02,21,20.60
2016,08,20,02,22,20.60
2016,08,20,02,23,20.60
2016,08,20,02,24,20.60
2016,08,20,02,25,20.60
2016,08,20,02,26,20.60
2016,08,20,02,27,20.70
2016,08,20,02,28,20.70
2016,08,20,02,29,20.70
2016,08,20,02,30,20.70
2016,08,20,02,31,20.70
2016,08,20,02,32,20.70
2016,08,20,02,33,20.70
2016,08,20,02,34,20.70
2016,08,20,02,35,20.70
2016,08,20,02,36,20.60
2016,08,20,02,37,20.60
2016,08,20,02,38,20.60
2016,08,20,02,39,20.60
2016,08,20,02,40,20.60
2016,08,20,02,41,20.50
2016,08,20,02,42,20.50
2016,08,20,02,43,20.40
2016,08,20,02,44,20.40
2016,08,20,02,45,20.40
2016,08,20,02,46,20.30
2016,08,20,02,47,20.30
2016,08,20,02,48,20.30
2016,08,20,02,49,20.20
2016,08,20,02,50,20.10
2016,08,20,02,51,19.90
2016,08,20,02,52,19.80
2016,08,20,02,53,19.70
2016,08,20,02,54,19.60
2016,08,20,02,55,19.50
2016,08,20,02,56,19.50
2016,08,20,02,57,19.40
2016,08,20,02,58,19.30
2016,08,20,02,59,19.20
2016,08,20,03,00,19.20
2016,08,20,03,01,19.10
2016,08,20,03,02,19.10
2016,08,20,03,03,19.00
2016,08,20,03,04,19.00
2016,08,20,03,05,18.90
2016,08,20,03,06,18.90
2016,08,20,03,07,18.90
2016,08,20,03,08,18.80
2016,08,20,03,09,18.80
2016,08,20,03,10,18.80
2016,08,20,03,11,18.80
2016,08,20,03,12,18.80
2016,08,20,03,13,18.70
2016,08,20,03,14,18.70
2016,08,20,03,15,18.70
2016,08,20,03,16,18.60
2016,08,20,03,17,18.60
2016,08,20,03,18,18.60
2016,08,20,03,19,18.50
2016,08,20,03,20,18.50
2016,08,20,03,21,18.40
2016,08,20,03,22,18.40
2016,08,20,03,23,18.40
2016,08,20,03,24,18.30
2016,08,20,03,25,18.30
2016,08,20,03,26,18.30
2016,08,20,03,27,18.30
2016,08,20,03,28,18.20
2016,08,20,03,29,18.20
2016,08,20,03,30,18.20
2016,08,20,03,31,18.20
2016,08,20,03,32,18.20
2016,08,20,03,33,18.20
2016,08,20,03,34,18.10
2016,08,20,03,35,18.10
2016,08,20,03,36,18.10
2016,08,20,03,37,18.10
2016,08,20,03,38,18.10
2016,08,20,03,39,18.00
2016,08,20,03,40,18.00
2016,08,20,03,41,18.00
2016,08,20,03,42,17.90
2016,08,20,03,43,17.90
2016,08,20,03,44,17.80
2016,08,20,03,45,17.70
2016,08,20,03,46,17.70
2016,08,20,03,47,17.60
2016,08,20,03,48,17.60
2016,08,20,03,49,17.50
2016,08,20,03,50,17.50
2016,08,20,03,51,17.50
2016,08,20,03,52,17.40
2016,08,20,03,53,17.40
2016,08,20,03,54,17.40
2016,08,20,03,55,17.40
2016,08,20,03,56,17.30
2016,08,20,03,57,17.30
2016,08,20,03,58,17.30
2016,08,20,03,59,17.30
2016,08,20,04,00,17.30
2016,08,20,04,01,17.30
2016,08,20,04,02,17.30
2016,08,20,04,03,17.30
2016,08,20,04,04,17.30
2016,08,20,04,05,17.30
2016,08,20,04,06,17.30
2016,08,20,04,07,17.30
2016,08,20,04,08,17.30
2016,08,20,04,09,17.30
2016,08,20,04,10,17.30
2016,08,20,04,11,17.30
2016,08,20,04,12,17.30
2016,08,20,04,13,17.30
2016,08,20,04,14,17.30
2016,08,20,04,15,17.30
2016,08,20,04,16,17.30
2016,08,20,04,17,17.30
2016,08,20,04,18,17.30
2016,08,20,04,19,17.30
2016,08,20,04,20,17.40
2016,08,20,04,21,17.40
2016,08,20,04,22,17.40
2016,08,20,04,23,17.40
2016,08,20,04,24,17.40
2016,08,20,04,25,17.50
2016,08,20,04,26,17.60
2016,08,20,04,27,17.60
2016,08,20,04,28,17.70
2016,08,20,04,29,17.70
2016,08,20,04,30,17.80
2016,08,20,04,31,17.80
2016,08,20,04,32,17.90
2016,08,20,04,33,17.90
2016,08,20,04,34,18.00
2016,08,20,04,35,18.10
2016,08,20,04,36,18.10
2016,08,20,04,37,18.20
2016,08,20,04,38,18.20
2016,08,20,04,39,18.30
2016,08,20,04,40,18.30
2016,08,20,04,41,18.30
2016,08,20,04,42,18.30
2016,08,20,04,43,18.40
2016,08,20,04,44,18.40
2016,08,20,04,45,18.50
2016,08,20,04,46,18.50
2016,08,20,04,47,18.50
2016,08,20,04,48,18.60
2016,08,20,04,49,18.60
2016,08,20,04,50,18.60
2016,08,20,04,51,18.70
2016,08,20,04,52,18.70
2016,08,20,04,53,18.70
2016,08,20,04,54,18.80
2016,08,20,04,55,18.80
2016,08,20,04,56,18.80
2016,08,20,04,57,18.80
2016,08,20,04,58,18.80
2016,08,20,04,59,18.90
2016,08,20,05,00,18.90
2016,08,20,05,01,18.90
2016,08,20,05,02,19.00
2016,08,20,05,03,19.10
2016,08,20,05,04,19.10
2016,08,20,05,05,19.20
2016,08,20,05,06,19.20
2016,08,20,05,07,19.20
2016,08,20,05,08,19.20
2016,08,20,05,09,19.20
2016,08,20,05,10,19.20
2016,08,20,05,11,19.20
2016,08,20,05,12,19.20
2016,08,20,05,13,19.20
2016,08,20,05,14,19.20
2016,08,20,05,15,19.20
2016,08,20,05,16,19.20
2016,08,20,05,17,19.20
2016,08,20,05,18,19.20
2016,08,20,05,19,19.20
2016,08,20,05,20,19.20
2016,08,20,05,21,19.10
2016,08,20,05,22,19.10
2016,08,20,05,23,19.10
2016,08,20,05,24,19.10
2016,08,20,05,25,19.10
2016,08,20,05,26,19.10
2016,08,20,05,27,19.10
2016,08,20,05,28,19.20
2016,08,20,05,29,19.10
2016,08,20,05,30,19.10
2016,08,20,05,31,19.10
2016,08,20,05,32,19.10
2016,08,20,05,33,19.10
2016,08,20,05,34,19.10
2016,08,20,05,35,19.10
2016,08,20,05,36,19.10
2016,08,20,05,37,19.10
2016,08,20,05,38,19.10
2016,08,20,05,39,19.10
2016,08,20,05,40,19.10
2016,08,20,05,41,19.10
2016,08,20,05,42,19.10
2016,08,20,05,43,19.10
2016,08,20,05,44,19.10
2016,08,20,05,45,19.10
2016,08,20,05,46,19.10
2016,08,20,05,47,19.10
2016,08,20,05,48,19.10
2016,08,20,05,49,19.10
2016,08,20,05,50,19.10
2016,08,20,05,51,19.10
2016,08,20,05,52,19.10
2016,08,20,05,53,19.20
2016,08,20,05,54,19.20
2016,08,20,05,55,19.20
2016,08,20,05,56,19.20
2016,08,20,05,57,19.20
2016,08,20,05,58,19.20
2016,08,20,05,59,19.20
2016,08,20,06,00,19.20
2016,08,20,06,01,19.20
2016,08,20,06,02,19.20
2016,08,20,06,03,19.10
2016,08,20,06,04,19.10
2016,08,20,06,05,19.10
2016,08,20,06,06,19.10
2016,08,20,06,07,19.10
2016,08,20,06,08,19.10
2016,08,20,06,09,19.10
2016,08,20,06,10,19.10
2016,08,20,06,11,19.10
2016,08,20,06,12,19.10
2016,08,20,06,13,19.10
2016,08,20,06,14,19.10
2016,08,20,06,15,19.10
2016,08,20,06,16,19.00
2016,08,20,06,17,19.00
2016,08,20,06,18,19.00
2016,08,20,06,19,19.00
2016,08,20,06,20,19.00
2016,08,20,06,21,18.90
2016,08,20,06,22,18.90
2016,08,20,06,23,18.90
2016,08,20,06,24,18.90
2016,08,20,06,25,18.90
2016,08,20,06,26,18.90
2016,08,20,06,27,18.80
2016,08,20,06,28,18.80
2016,08,20,06,29,18.80
2016,08,20,06,30,18.80
2016,08,20,06,31,18.80
2016,08,20,06,32,18.80
2016,08,20,06,33,18.80
2016,08,20,06,34,18.80
2016,08,20,06,35,18.80
2016,08,20,06,36,18.80
2016,08,20,06,37,18.80
2016,08,20,06,38,18.80
2016,08,20,06,39,18.80
2016,08,20,06,40,18.80
2016,08,20,06,41,18.80
2016,08,20,06,42,18.80
2016,08,20,06,43,18.80
2016,08,20,06,44,18.80
2016,08,20,06,45,18.80
2016,08,20,06,46,18.80
2016,08,20,06,47,18.80
2016,08,20,06,48,18.80
2016,08,20,06,49,18.80
2016,08,20,06,50,18.80
2016,08,20,06,51,18.80
2016,08,20,06,52,18.80
2016,08,20,06,53,18.80
2016,08,20,06,54,18.80
2016,08,20,06,55,18.80
2016,08,20,06,56,18.80
2016,08,20,06,57,18.80
2016,08,20,06,58,18.80
2016,08,20,06,59,18.80
2016,08,20,07,00,18.80
2016,08,20,07,01,18.80
2016,08,20,07,02,18.80
2016,08,20,07,03,18.80
2016,08,20,07,04,18.80
2016,08,20,07,05,18.80
2016,08,20,07,06,18.80
2016,08,20,07,07,18.80
2016,08,20,07,08,18.80
2016,08,20,07,09,18.80
2016,08,20,07,10,18.80
2016,08,20,07,11,18.80
2016,08,20,07,12,18.80
2016,08,20,07,13,18.80
2016,08,20,07,14,18.80
2016,08,20,07,15,18.80
2016,08,20,07,16,18.80
2016,08,20,07,17,18.80
2016,08,20,07,18,18.80
2016,08,20,07,19,18.80
2016,08,20,07,20,18.80
2016,08,20,07,21,18.80
2016,08,20,07,22,18.90
2016,08,20,07,23,18.90
2016,08,20,07,24,18.90
2016,08,20,07,25,18.90
2016,08,20,07,26,18.90
2016,08,20,07,27,18.90
2016,08,20,07,28,18.90
2016,08,20,07,29,18.90
2016,08,20,07,30,18.90
2016,08,20,07,31,19.00
2016,08,20,07,32,19.00
2016,08,20,07,33,19.00
2016,08,20,07,34,19.00
2016,08,20,07,35,19.00
2016,08,20,07,36,19.00
2016,08,20,07,37,19.00
2016,08,20,07,38,19.10
2016,08,20,07,39,19.10
2016,08,20,07,40,19.10
2016,08,20,07,41,19.10
2016,08,20,07,42,19.10
2016,08,20,07,43,19.10
2016,08,20,07,44,19.10
2016,08,20,07,45,19.10
2016,08,20,07,46,19.10
2016,08,20,07,47,19.10
2016,08,20,07,48,19.10
2016,08,20,07,49,19.20
2016,08,20,07,50,19.20
2016,08,20,07,51,19.20
2016,08,20,07,52,19.20
2016,08,20,07,53,19.20
2016,08,20,07,54,19.20
2016,08,20,07,55,19.20
2016,08,20,07,56,19.20
2016,08,20,07,57,19.20
2016,08,20,07,58,19.20
2016,08,20,07,59,19.20
2016,08,20,08,00,19.20
2016,08,20,08,01,19.30
2016,08,20,08,02,19.30
2016,08,20,08,03,19.30
2016,08,20,08,04,19.30
2016,08,20,08,05,19.30
2016,08,20,08,06,19.30
2016,08,20,08,07,19.30
2016,08,20,08,08,19.30
2016,08,20,08,09,19.30
2016,08,20,08,10,19.40
2016,08,20,08,11,19.40
2016,08,20,08,12,19.40
2016,08,20,08,13,19.40
2016,08,20,08,14,19.40
2016,08,20,08,15,19.40
2016,08,20,08,16,19.50
2016,08,20,08,17,19.50
2016,08,20,08,18,19.50
2016,08,20,08,19,19.60
2016,08,20,08,20,19.60
2016,08,20,08,21,19.60
2016,08,20,08,22,19.60
2016,08,20,08,23,19.60
2016,08,20,08,24,19.60
2016,08,20,08,25,19.60
2016,08,20,08,26,19.60
2016,08,20,08,27,19.60
2016,08,20,08,28,19.60
2016,08,20,08,29,19.60
2016,08,20,08,30,19.60
2016,08,20,08,31,19.60
2016,08,20,08,32,19.60
2016,08,20,08,33,19.60
2016,08,20,08,34,19.60
2016,08,20,08,35,19.60
2016,08,20,08,36,19.60
2016,08,20,08,37,19.60
2016,08,20,08,38,19.70
2016,08,20,08,39,19.70
2016,08,20,08,40,19.70
2016,08,20,08,41,19.70
2016,08,20,08,42,19.70
2016,08,20,08,43,19.70
2016,08,20,08,44,19.70
2016,08,20,08,45,19.70
2016,08,20,08,46,19.70
2016,08,20,08,47,19.70
2016,08,20,08,48,19.70
2016,08,20,08,49,19.70
2016,08,20,08,50,19.70
2016,08,20,08,51,19.70
2016,08,20,08,52,19.70
2016,08,20,08,53,19.70
2016,08,20,08,54,19.70
2016,08,20,08,55,19.70
2016,08,20,08,56,19.80
2016,08,20,08,57,19.80
2016,08,20,08,58,19.80
2016,08,20,08,59,19.80
2016,08,20,09,00,19.80
2016,08,20,09,01,19.80
2016,08,20,09,02,19.80
2016,08,20,09,03,19.80
2016,08,20,09,04,19.80
2016,08,20,09,05,19.90
2016,08,20,09,06,19.90
2016,08,20,09,07,19.90
2016,08,20,09,08,19.90
2016,08,20,09,09,20.00
2016,08,20,09,10,20.00
2016,08,20,09,11,20.00
2016,08,20,09,12,20.00
2016,08,20,09,13,20.00
2016,08,20,09,14,20.10
2016,08,20,09,15,20.10
2016,08,20,09,16,20.10
2016,08,20,09,17,20.10
2016,08,20,09,18,20.10
2016,08,20,09,19,20.10
2016,08,20,09,20,20.10
2016,08,20,09,21,20.10
2016,08,20,09,22,20.20
2016,08,20,09,23,20.20
2016,08,20,09,24,20.20
2016,08,20,09,25,20.20
2016,08,20,09,26,20.30
2016,08,20,09,27,20.30
2016,08,20,09,28,20.30
2016,08,20,09,29,20.30
2016,08,20,09,30,20.30
2016,08,20,09,31,20.30
2016,08,20,09,32,20.30
2016,08,20,09,33,20.30
2016,08,20,09,34,20.30
2016,08,20,09,35,20.30
2016,08,20,09,36,20.30
2016,08,20,09,37,20.40
2016,08,20,09,38,20.40
2016,08,20,09,39,20.40
2016,08,20,09,40,20.40
2016,08,20,09,41,20.40
2016,08,20,09,42,20.40
2016,08,20,09,43,20.50
2016,08,20,09,44,20.50
2016,08,20,09,45,20.60
2016,08,20,09,46,20.60
2016,08,20,09,47,20.70
2016,08,20,09,48,20.70
2016,08,20,09,49,20.70
2016,08,20,09,50,20.70
2016,08,20,09,51,20.70
2016,08,20,09,52,20.70
2016,08,20,09,53,20.70
2016,08,20,09,54,20.80
2016,08,20,09,55,20.80
2016,08,20,09,56,20.80
2016,08,20,09,57,20.80
2016,08,20,09,58,20.80
2016,08,20,09,59,20.90
2016,08,20,10,00,20.90
2016,08,20,10,01,20.90
2016,08,20,10,02,20.90
2016,08,20,10,03,20.90
2016,08,20,10,04,20.90
2016,08,20,10,05,20.90
2016,08,20,10,06,20.90
2016,08,20,10,07,20.90
2016,08,20,10,08,20.90
2016,08,20,10,09,20.90
2016,08,20,10,10,20.90
2016,08,20,10,11,20.90
2016,08,20,10,12,20.90
2016,08,20,10,13,20.90
2016,08,20,10,14,21.00
2016,08,20,10,15,21.00
2016,08,20,10,16,21.10
2016,08,20,10,17,21.10
2016,08,20,10,18,21.10
2016,08,20,10,19,21.20
2016,08,20,10,20,21.20
2016,08,20,10,21,21.20
2016,08,20,10,22,21.20
2016,08,20,10,23,21.20
2016,08,20,10,24,21.30
2016,08,20,10,25,21.30
2016,08,20,10,26,21.30
2016,08,20,10,27,21.30
2016,08,20,10,28,21.40
2016,08,20,10,29,21.40
2016,08,20,10,30,21.50
2016,08,20,10,31,21.50
2016,08,20,10,32,21.60
2016,08,20,10,33,21.60
2016,08,20,10,34,21.70
2016,08,20,10,35,21.70
2016,08,20,10,36,21.70
2016,08,20,10,37,21.80
2016,08,20,10,38,21.80
2016,08,20,10,39,21.80
2016,08,20,10,40,21.80
2016,08,20,10,41,21.80
2016,08,20,10,42,21.90
2016,08,20,10,43,21.90
2016,08,20,10,44,21.90
2016,08,20,10,45,21.90
2016,08,20,10,46,21.90
2016,08,20,10,47,21.90
2016,08,20,10,48,21.90
2016,08,20,10,49,22.00
2016,08,20,10,50,22.00
2016,08,20,10,51,22.00
2016,08,20,10,52,22.10
2016,08,20,10,53,22.10
2016,08,20,10,54,22.10
2016,08,20,10,55,22.10
2016,08,20,10,56,22.10
2016,08,20,10,57,22.20
2016,08,20,10,58,22.20
2016,08,20,10,59,22.20
2016,08,20,11,00,22.20
2016,08,20,11,01,22.20
2016,08,20,11,02,22.30
2016,08,20,11,03,22.30
2016,08,20,11,04,22.40
2016,08,20,11,05,22.40
2016,08,20,11,06,22.40
2016,08,20,11,07,22.40
2016,08,20,11,08,22.40
2016,08,20,11,09,22.40
2016,08,20,11,10,22.40
2016,08,20,11,11,22.50
2016,08,20,11,12,22.50
2016,08,20,11,13,22.50
2016,08,20,11,14,22.60
2016,08,20,11,15,22.60
2016,08,20,11,16,22.60
2016,08,20,11,17,22.70
2016,08,20,11,18,22.70
2016,08,20,11,19,22.70
2016,08,20,11,20,22.80
2016,08,20,11,21,22.90
2016,08,20,11,22,22.90
2016,08,20,11,23,22.90
2016,08,20,11,24,22.90
2016,08,20,11,25,22.90
2016,08,20,11,26,22.90
2016,08,20,11,27,22.90
2016,08,20,11,28,23.00
2016,08,20,11,29,23.00
2016,08,20,11,30,23.00
2016,08,20,11,31,23.10
2016,08,20,11,32,23.10
2016,08,20,11,33,23.20
2016,08,20,11,34,23.20
2016,08,20,11,35,23.20
2016,08,20,11,36,23.20
2016,08,20,11,37,23.20
2016,08,20,11,38,23.10
2016,08,20,11,39,23.10
2016,08,20,11,40,23.00
2016,08,20,11,41,23.00
2016,08,20,11,42,23.00
2016,08,20,11,43,22.90
2016,08,20,11,44,22.90
2016,08,20,11,45,22.90
2016,08,20,11,46,23.00
2016,08,20,11,47,23.00
2016,08,20,11,48,23.00
2016,08,20,11,49,23.10
2016,08,20,11,50,23.10
2016,08,20,11,51,23.20
2016,08,20,11,52,23.30
2016,08,20,11,53,23.40
2016,08,20,11,54,23.60
2016,08,20,11,55,23.60
2016,08,20,11,56,23.70
2016,08,20,11,57,23.70
2016,08,20,11,58,23.80
2016,08,20,11,59,23.80
2016,08,20,12,00,23.80
2016,08,20,12,01,23.90
2016,08,20,12,02,24.00
2016,08,20,12,03,24.00
2016,08,20,12,04,24.00
2016,08,20,12,05,24.00
2016,08,20,12,06,24.10
2016,08,20,12,07,24.10
2016,08,20,12,08,24.10
2016,08,20,12,09,24.20
2016,08,20,12,10,24.20
2016,08,20,12,11,24.20
2016,08,20,12,12,24.20
2016,08,20,12,13,24.30
2016,08,20,12,14,24.30
2016,08,20,12,15,24.40
2016,08,20,12,16,24.50
2016,08,20,12,17,24.50
2016,08,20,12,18,24.60
2016,08,20,12,19,24.70
2016,08,20,12,20,24.80
2016,08,20,12,21,24.80
2016,08,20,12,22,24.70
2016,08,20,12,23,24.70
2016,08,20,12,24,24.60
2016,08,20,12,25,24.60
2016,08,20,12,26,24.60
2016,08,20,12,27,24.60
2016,08,20,12,28,24.60
2016,08,20,12,29,24.60
2016,08,20,12,30,24.60
2016,08,20,12,31,24.60
2016,08,20,12,32,24.70
2016,08,20,12,33,24.70
2016,08,20,12,34,24.70
2016,08,20,12,35,24.70
2016,08,20,12,36,24.70
2016,08,20,12,37,24.70
2016,08,20,12,38,24.70
2016,08,20,12,39,24.70
2016,08,20,12,40,24.70
2016,08,20,12,41,24.80
2016,08,20,12,42,24.80
2016,08,20,12,43,24.80
2016,08,20,12,44,24.80
2016,08,20,12,45,24.80
2016,08,20,12,46,24.80
2016,08,20,12,47,24.80
2016,08,20,12,48,24.80
2016,08,20,12,49,24.80
2016,08,20,12,50,24.80
2016,08,20,12,51,24.70
2016,08,20,12,52,24.60
2016,08,20,12,53,24.60
2016,08,20,12,54,24.60
2016,08,20,12,55,24.50
2016,08,20,12,56,24.40
2016,08,20,12,57,24.40
2016,08,20,12,58,24.30
2016,08,20,12,59,24.30
2016,08,20,13,00,24.20
2016,08,20,13,01,24.20
2016,08,20,13,02,24.20
2016,08,20,13,03,24.20
2016,08,20,13,04,24.20
2016,08,20,13,05,24.30
2016,08,20,13,06,24.40
2016,08,20,13,07,24.40
2016,08,20,13,08,24.50
2016,08,20,13,09,24.60
2016,08,20,13,10,24.60
2016,08,20,13,11,24.60
2016,08,20,13,12,24.60
2016,08,20,13,13,24.70
2016,08,20,13,14,24.70
2016,08,20,13,15,24.70
2016,08,20,13,16,24.70
2016,08,20,13,17,24.70
2016,08,20,13,18,24.60
2016,08,20,13,19,24.60
2016,08,20,13,20,24.50
2016,08,20,13,21,24.50
2016,08,20,13,22,24.40
2016,08,20,13,23,24.40
2016,08,20,13,24,24.50
2016,08,20,13,25,24.50
2016,08,20,13,26,24.50
2016,08,20,13,27,24.50
2016,08,20,13,28,24.50
2016,08,20,13,29,24.50
2016,08,20,13,30,24.50
2016,08,20,13,31,24.50
2016,08,20,13,32,24.60
2016,08,20,13,33,24.60
2016,08,20,13,34,24.60
2016,08,20,13,35,24.70
2016,08,20,13,36,24.80
2016,08,20,13,37,24.90
2016,08,20,13,38,24.90
2016,08,20,13,39,24.90
2016,08,20,13,40,24.80
2016,08,20,13,41,24.80
2016,08,20,13,42,24.80
2016,08,20,13,43,24.80
2016,08,20,13,44,24.70
2016,08,20,13,45,24.70
2016,08,20,13,46,24.80
2016,08,20,13,47,24.80
2016,08,20,13,48,24.70
2016,08,20,13,49,24.70
2016,08,20,13,50,24.70
2016,08,20,13,51,24.70
2016,08,20,13,52,24.80
2016,08,20,13,53,24.80
2016,08,20,13,54,24.80
2016,08,20,13,55,24.80
2016,08,20,13,56,24.80
2016,08,20,13,57,24.80
2016,08,20,13,58,24.80
2016,08,20,13,59,24.90
2016,08,20,14,00,24.90
2016,08,20,14,01,25.00
2016,08,20,14,02,25.10
2016,08,20,14,03,25.10
2016,08,20,14,04,25.10
2016,08,20,14,05,25.10
2016,08,20,14,06,25.10
2016,08,20,14,07,25.10
2016,08,20,14,08,25.10
2016,08,20,14,09,25.10
2016,08,20,14,10,25.20
2016,08,20,14,11,25.20
2016,08,20,14,12,25.20
2016,08,20,14,13,25.20
2016,08,20,14,14,25.10
2016,08,20,14,15,25.10
2016,08,20,14,16,25.10
2016,08,20,14,17,25.00
2016,08,20,14,18,25.00
2016,08,20,14,19,25.00
2016,08,20,14,20,25.00
2016,08,20,14,21,25.10
2016,08,20,14,22,25.10
2016,08,20,14,23,25.20
2016,08,20,14,24,25.30
2016,08,20,14,25,25.30
2016,08,20,14,26,25.30
2016,08,20,14,27,25.40
2016,08,20,14,28,25.40
2016,08,20,14,29,25.40
2016,08,20,14,30,25.50
2016,08,20,14,31,25.50
2016,08,20,14,32,25.60
2016,08,20,14,33,25.60
2016,08,20,14,34,25.70
2016,08,20,14,35,25.60
2016,08,20,14,36,25.60
2016,08,20,14,37,25.60
2016,08,20,14,38,25.60
2016,08,20,14,39,25.60
2016,08,20,14,40,25.60
2016,08,20,14,41,25.50
2016,08,20,14,42,25.50
2016,08,20,14,43,25.50
2016,08,20,14,44,25.50
2016,08,20,14,45,25.60
2016,08,20,14,46,25.60
2016,08,20,14,47,25.60
2016,08,20,14,48,25.60
2016,08,20,14,49,25.60
2016,08,20,14,50,25.60
2016,08,20,14,51,25.60
2016,08,20,14,52,25.60
2016,08,20,14,53,25.60
2016,08,20,14,54,25.60
2016,08,20,14,55,25.70
2016,08,20,14,56,25.70
2016,08,20,14,57,25.70
2016,08,20,14,58,25.80
2016,08,20,14,59,25.80
2016,08,20,15,00,25.90
2016,08,20,15,01,25.90
2016,08,20,15,02,25.90
2016,08,20,15,03,25.90
2016,08,20,15,04,26.00
2016,08,20,15,05,26.00
2016,08,20,15,06,26.10
2016,08,20,15,07,26.10
2016,08,20,15,08,26.20
2016,08,20,15,09,26.10
2016,08,20,15,10,26.10
2016,08,20,15,11,26.10
2016,08,20,15,12,26.20
2016,08,20,15,13,26.20
2016,08,20,15,14,26.20
2016,08,20,15,15,26.20
2016,08,20,15,16,26.20
2016,08,20,15,17,26.20
2016,08,20,15,18,26.20
2016,08,20,15,19,26.20
2016,08,20,15,20,26.20
2016,08,20,15,21,26.30
2016,08,20,15,22,26.40
2016,08,20,15,23,26.40
2016,08,20,15,24,26.50
2016,08,20,15,25,26.50
2016,08,20,15,26,26.60
2016,08,20,15,27,26.60
2016,08,20,15,28,26.70
2016,08,20,15,29,26.70
2016,08,20,15,30,26.60
2016,08,20,15,31,26.50
2016,08,20,15,32,26.50
2016,08,20,15,33,26.50
2016,08,20,15,34,26.50
2016,08,20,15,35,26.60
2016,08,20,15,36,26.60
2016,08,20,15,37,26.60
2016,08,20,15,38,26.60
2016,08,20,15,39,26.60
2016,08,20,15,40,26.60
2016,08,20,15,41,26.70
2016,08,20,15,42,26.70
2016,08,20,15,43,26.80
2016,08,20,15,44,26.80
2016,08,20,15,45,26.80
2016,08,20,15,46,26.80
2016,08,20,15,47,26.80
2016,08,20,15,48,26.90
2016,08,20,15,49,27.00
2016,08,20,15,50,27.10
2016,08,20,15,51,27.10
2016,08,20,15,52,27.20
2016,08,20,15,53,27.30
2016,08,20,15,54,27.30
2016,08,20,15,55,27.30
2016,08,20,15,56,27.30
2016,08,20,15,57,27.30
2016,08,20,15,58,27.20
2016,08,20,15,59,27.20
2016,08,20,16,00,27.10
2016,08,20,16,01,27.10
2016,08,20,16,02,27.10
2016,08,20,16,03,27.10
2016,08,20,16,04,27.10
2016,08,20,16,05,27.20
2016,08,20,16,06,27.20
2016,08,20,16,07,27.10
2016,08,20,16,08,27.00
2016,08,20,16,09,26.90
2016,08,20,16,10,26.80
2016,08,20,16,11,26.80
2016,08,20,16,12,26.80
2016,08,20,16,13,26.80
2016,08,20,16,14,26.80
2016,08,20,16,15,26.90
2016,08,20,16,16,26.90
2016,08,20,16,17,27.00
2016,08,20,16,18,27.00
2016,08,20,16,19,27.00
2016,08,20,16,20,27.10
2016,08,20,16,21,27.10
2016,08,20,16,22,27.10
2016,08,20,16,23,27.20
2016,08,20,16,24,27.30
2016,08,20,16,25,27.30
2016,08,20,16,26,27.40
2016,08,20,16,27,27.50
2016,08,20,16,28,27.60
2016,08,20,16,29,27.60
2016,08,20,16,30,27.70
2016,08,20,16,31,27.70
2016,08,20,16,32,27.70
2016,08,20,16,33,27.80
2016,08,20,16,34,27.80
2016,08,20,16,35,27.90
2016,08,20,16,36,27.90
2016,08,20,16,37,27.90
2016,08,20,16,38,27.90
2016,08,20,16,39,27.90
2016,08,20,16,40,27.90
2016,08,20,16,41,27.90
2016,08,20,16,42,27.90
2016,08,20,16,43,27.90
2016,08,20,16,44,28.00
2016,08,20,16,45,28.00
2016,08,20,16,46,28.00
2016,08,20,16,47,28.10
2016,08,20,16,48,28.10
2016,08,20,16,49,28.00
2016,08,20,16,50,27.90
2016,08,20,16,51,27.80
2016,08,20,16,52,27.70
2016,08,20,16,53,27.70
2016,08,20,16,54,27.60
2016,08,20,16,55,27.60
2016,08,20,16,56,27.60
2016,08,20,16,57,27.60
2016,08,20,16,58,27.60
2016,08,20,16,59,27.60
2016,08,20,17,00,27.50
2016,08,20,17,01,27.50
2016,08,20,17,02,27.50
2016,08,20,17,03,27.60
2016,08,20,17,04,27.50
2016,08,20,17,05,27.50
2016,08,20,17,06,27.40
2016,08,20,17,07,27.40
2016,08,20,17,08,27.40
2016,08,20,17,09,27.30
2016,08,20,17,10,27.30
2016,08,20,17,11,27.30
2016,08,20,17,12,27.20
2016,08,20,17,13,27.20
2016,08,20,17,14,27.10
2016,08,20,17,15,27.10
2016,08,20,17,16,27.10
2016,08,20,17,17,27.10
2016,08,20,17,18,27.10
2016,08,20,17,19,27.10